{"data":{"norad_id":55601,"epoch":"2026-09-19T22:15:14.647104Z","epoch_age_seconds":149844,"freshness":"FRESH","line1":"1 55601U 23020AJ  26262.92725286 -.00000506  00000+0 -88657-5 0  9994","line2":"2 55601  43.0041 348.7032 0001408 270.7233  89.3458 15.27572937198615","mean_motion":15.27572937,"eccentricity":0.0001408,"inclination_deg":43.0041,"raan_deg":348.7032,"arg_perigee_deg":270.7233,"mean_anomaly_deg":89.3458,"bstar":-8.8657e-6,"rev_number":19861,"period_min":94.267184572412,"perigee_km":482.10418730391,"apogee_km":484.03630326418,"semimajor_km":6861.207245284,"source":"CELESTRAK","updated_at":"2026-09-21T09:00:33.271761Z"}}